QPF
0.03 0.01 0.01 0.02 0.01 0.01 0.01 0.00 0.00 0.00 0.00 0.00 0.00 0.00 0.00 0.00 0.00 0.00 0.01 0.01 0.00 0.00 0.00 0.00 0.00 0.00 0.01 0.01 0.01 0.01 0.02 0.03 0.04 0.04 0.05 0.05 0.06 0.07 0.09 0.08 0.07 0.04 0.04
0.04 0.01 0.01 0.02 0.01 0.01 0.01 0.00 0.00 0.00 0.00 0.00 0.00 0.00 0.00 0.01 0.01 0.01 0.01 0.01 0.00 0.00 0.00 0.00 0.00 0.00 0.01 0.01 0.01 0.01 0.01 0.01 0.03 0.05 0.05 0.04 0.05 0.05 0.06 0.06 0.06 0.04 0.04
0.02 0.01 0.01 0.01 0.01 0.01 0.01 0.01 0.00 0.00 0.00 0.00 0.00 0.00 0.01 0.01 0.00 0.00 0.00 0.00 0.01 0.00 0.00 0.00 0.00 0.00 0.00 0.00 0.00 0.01 0.01 0.01 0.01 0.04 0.05 0.03 0.02 0.04 0.04 0.04 0.04 0.03 0.04
0.01 0.01 0.00 0.02 0.02 0.01 0.01 0.02 0.01 0.00 0.00 0.00 0.00 0.00 0.01 0.01 0.00 0.00 0.00 0.00 0.00 0.00 0.00 0.00 0.00 0.00 0.01 0.01 0.01 0.01 0.01 0.01 0.01 0.03 0.03 0.04 0.04 0.04 0.04 0.04 0.03 0.03 0.03
0.02 0.02 0.01 0.01 0.02 0.01 0.01 0.01 0.01 0.01 0.01 0.01 0.00 0.01 0.00 0.01 0.01 0.01 0.01 0.00 0.00 0.00 0.00 0.00 0.00 0.00 0.01 0.01 0.01 0.01 0.01 0.01 0.01 0.02 0.02 0.04 0.05 0.05 0.05 0.04 0.04 0.03 0.04
0.03 0.02 0.01 0.01 0.01 0.02 0.02 0.02 0.02 0.01 0.01 0.01 0.01 0.01 0.01 0.01 0.01 0.01 0.01 0.01 0.01 0.01 0.01 0.01 0.01 0.01 0.01 0.01 0.01 0.01 0.01 0.02 0.01 0.01 0.03 0.04 0.04 0.06 0.05 0.04 0.05 0.05 0.05
0.03 0.02 0.01 0.00 0.01 0.02 0.03 0.02 0.02 0.02 0.01 0.01 0.02 0.01 0.00 0.00 0.00 0.01 0.01 0.01 0.01 0.01 0.02 0.02 0.02 0.02 0.01 0.01 0.01 0.01 0.02 0.01 0.02 0.02 0.02 0.02 0.03 0.06 0.06 0.05 0.04 0.05 0.05
0.01 0.01 0.01 0.00 0.01 0.02 0.03 0.02 0.01 0.01 0.01 0.01 0.01 0.00 0.00 0.00 0.01 0.01 0.01 0.01 0.00 0.01 0.02 0.03 0.04 0.03 0.02 0.01 0.01 0.01 0.02 0.01 0.02 0.03 0.04 0.05 0.05 0.07 0.07 0.05 0.04 0.04 0.04
0.02 0.01 0.01 0.02 0.02 0.03 0.03 0.02 0.01 0.01 0.01 0.01 0.00 0.01 0.01 0.01 0.01 0.01 0.01 0.01 0.01 0.01 0.02 0.02 0.03 0.03 0.02 0.02 0.02 0.02 0.02 0.02 0.03 0.03 0.03 0.06 0.08 0.07 0.06 0.05 0.04 0.04 0.04
0.04 0.04 0.03 0.04 0.03 0.03 0.03 0.03 0.02 0.01 0.01 0.00 0.00 0.01 0.01 0.01 0.01 0.02 0.02 0.01 0.01 0.02 0.03 0.02 0.02 0.02 0.02 0.02 0.02 0.02 0.02 0.02 0.02 0.03 0.03 0.05 0.07 0.06 0.06 0.04 0.03 0.03 0.03
0.04 0.05 0.07 0.06 0.04 0.03 0.03 0.04 0.04 0.02 0.01 0.01 0.01 0.01 0.02 0.01 0.01 0.01 0.01 0.02 0.02 0.02 0.03 0.02 0.02 0.02 0.02 0.02 0.02 0.02 0.02 0.02 0.02 0.03 0.04 0.04 0.07 0.08 0.08 0.06 0.04 0.03 0.02
0.06 0.08 0.08 0.09 0.07 0.05 0.05 0.05 0.05 0.03 0.02 0.01 0.01 0.02 0.02 0.02 0.01 0.01 0.02 0.02 0.02 0.03 0.03 0.03 0.03 0.04 0.03 0.03 0.02 0.02 0.02 0.01 0.02 0.02 0.03 0.04 0.07 0.08 0.08 0.07 0.05 0.04 0.03
0.04 0.07 0.16 0.20 0.12 0.08 0.08 0.07 0.05 0.04 0.03 0.03 0.03 0.03 0.02 0.01 0.01 0.02 0.02 0.01 0.01 0.02 0.02 0.03 0.05 0.04 0.02 0.02 0.02 0.02 0.03 0.02 0.02 0.02 0.03 0.04 0.06 0.08 0.08 0.07 0.06 0.05 0.04
0.04 0.06 0.16 0.22 0.14 0.10 0.12 0.12 0.09 0.07 0.05 0.04 0.04 0.04 0.03 0.02 0.02 0.02 0.02 0.01 0.01 0.01 0.02 0.02 0.03 0.03 0.03 0.03 0.03 0.03 0.03 0.03 0.02 0.03 0.05 0.05 0.06 0.08 0.09 0.08 0.07 0.06 0.04
0.12 0.10 0.13 0.21 0.16 0.11 0.13 0.16 0.13 0.11 0.10 0.06 0.06 0.05 0.04 0.03 0.02 0.02 0.03 0.02 0.01 0.01 0.02 0.03 0.03 0.02 0.03 0.02 0.02 0.03 0.03 0.04 0.04 0.03 0.03 0.04 0.06 0.06 0.07 0.08 0.07 0.05 0.04
0.23 0.18 0.11 0.16 0.22 0.20 0.15 0.12 0.08 0.07 0.10 0.09 0.09 0.08 0.05 0.04 0.03 0.03 0.05 0.05 0.02 0.02 0.03 0.03 0.03 0.03 0.03 0.03 0.02 0.03 0.03 0.04 0.03 0.04 0.03 0.03 0.04 0.05 0.06 0.07 0.08 0.07 0.05
0.18 0.15 0.10 0.10 0.17 0.21 0.17 0.13 0.09 0.08 0.10 0.12 0.14 0.12 0.07 0.04 0.04 0.03 0.03 0.06 0.05 0.04 0.04 0.04 0.04 0.04 0.05 0.05 0.04 0.04 0.04 0.04 0.03 0.03 0.03 0.03 0.04 0.05 0.06 0.07 0.07 0.08 0.07
0.12 0.10 0.08 0.09 0.14 0.18 0.12 0.10 0.10 0.09 0.10 0.11 0.12 0.12 0.10 0.10 0.06 0.04 0.03 0.04 0.04 0.05 0.05 0.05 0.04 0.05 0.05 0.05 0.05 0.05 0.04 0.05 0.05 0.04 0.04 0.04 0.05 0.05 0.06 0.07 0.07 0.07 0.07
0.10 0.10 0.09 0.10 0.11 0.12 0.12 0.08 0.07 0.09 0.15 0.12 0.09 0.09 0.07 0.07 0.06 0.05 0.04 0.03 0.05 0.06 0.07 0.06 0.05 0.06 0.04 0.04 0.05 0.06 0.07 0.07 0.06 0.05 0.05 0.05 0.04 0.04 0.05 0.03 0.04 0.06 0.06
0.08 0.07 0.08 0.09 0.12 0.14 0.11 0.08 0.07 0.10 0.17 0.14 0.13 0.11 0.08 0.06 0.06 0.07 0.06 0.04 0.05 0.07 0.08 0.09 0.08 0.06 0.05 0.04 0.05 0.05 0.07 0.08 0.07 0.05 0.04 0.04 0.05 0.05 0.04 0.04 0.03 0.04 0.05
0.08 0.06 0.06 0.07 0.08 0.12 0.13 0.09 0.07 0.09 0.13 0.11 0.09 0.06 0.06 0.07 0.06 0.06 0.06 0.05 0.05 0.05 0.07 0.08 0.07 0.06 0.05 0.04 0.04 0.04 0.05 0.06 0.06 0.05 0.04 0.05 0.05 0.05 0.05 0.05 0.04 0.04 0.04
0.08 0.06 0.07 0.08 0.07 0.08 0.10 0.10 0.08 0.08 0.08 0.06 0.06 0.05 0.05 0.05 0.05 0.06 0.06 0.06 0.05 0.05 0.06 0.06 0.07 0.06 0.05 0.04 0.05 0.06 0.05 0.04 0.03 0.04 0.04 0.05 0.04 0.05 0.05 0.05 0.07 0.08 0.05
0.07 0.06 0.08 0.07 0.08 0.08 0.10 0.11 0.11 0.10 0.09 0.07 0.07 0.06 0.05 0.05 0.05 0.05 0.06 0.06 0.06 0.06 0.06 0.06 0.08 0.07 0.07 0.07 0.06 0.05 0.04 0.03 0.02 0.02 0.04 0.05 0.05 0.04 0.04 0.04 0.04 0.05 0.04
0.07 0.07 0.10 0.12 0.12 0.11 0.08 0.08 0.09 0.07 0.05 0.05 0.07 0.06 0.05 0.05 0.06 0.06 0.08 0.08 0.07 0.06 0.07 0.09 0.09 0.09 0.08 0.07 0.05 0.03 0.02 0.02 0.03 0.03 0.04 0.05 0.05 0.04 0.03 0.03 0.03 0.03 0.03
0.06 0.09 0.11 0.13 0.13 0.11 0.09 0.09 0.08 0.06 0.06 0.07 0.07 0.06 0.06 0.06 0.06 0.06 0.07 0.08 0.08 0.10 0.12 0.12 0.11 0.10 0.08 0.05 0.03 0.02 0.02 0.03 0.04 0.03 0.02 0.03 0.05 0.04 0.03 0.03 0.03 0.04 0.04
0.07 0.10 0.15 0.15 0.13 0.14 0.13 0.12 0.12 0.10 0.09 0.07 0.07 0.07 0.07 0.07 0.06 0.05 0.06 0.06 0.08 0.09 0.10 0.10 0.08 0.07 0.06 0.05 0.04 0.03 0.03 0.03 0.03 0.03 0.02 0.01 0.03 0.03 0.03 0.03 0.03 0.03 0.02
MSLP
1007.07 1006.60 1006.37 1006.43 1006.74 1007.19 1007.69 1008.13 1008.45 1008.63 1008.72 1008.79 1008.92 1009.17 1009.55 1010.04 1010.58 1011.10 1011.55 1011.89 1012.13 1012.31 1012.46 1012.63 1012.85 1013.13 1013.45 1013.76 1014.06 1014.31 1014.53 1014.74 1014.96 1015.21 1015.51 1015.83 1016.16 1016.45 1016.68 1016.84 1016.94 1016.99 1017.05
1006.87 1006.54 1006.44 1006.60 1006.98 1007.47 1007.98 1008.40 1008.70 1008.87 1008.97 1009.06 1009.23 1009.51 1009.92 1010.42 1010.94 1011.43 1011.82 1012.10 1012.29 1012.43 1012.56 1012.74 1012.97 1013.26 1013.58 1013.89 1014.17 1014.40 1014.59 1014.77 1014.97 1015.21 1015.51 1015.83 1016.16 1016.46 1016.69 1016.84 1016.93 1016.98 1017.04
1006.41 1006.22 1006.25 1006.54 1007.00 1007.56 1008.10 1008.55 1008.86 1009.05 1009.16 1009.29 1009.48 1009.79 1010.20 1010.68 1011.17 1011.60 1011.94 1012.17 1012.32 1012.45 1012.59 1012.78 1013.05 1013.36 1013.70 1014.01 1014.28 1014.49 1014.65 1014.81 1014.99 1015.22 1015.51 1015.83 1016.16 1016.45 1016.67 1016.82 1016.91 1016.97 1017.04
1005.75 1005.69 1005.86 1006.27 1006.84 1007.47 1008.07 1008.56 1008.91 1009.12 1009.27 1009.42 1009.64 1009.95 1010.36 1010.81 1011.25 1011.63 1011.92 1012.12 1012.26 1012.40 1012.57 1012.80 1013.11 1013.47 1013.83 1014.15 1014.41 1014.60 1014.75 1014.88 1015.04 1015.26 1015.53 1015.84 1016.15 1016.43 1016.65 1016.80 1016.89 1016.96 1017.04
1005.03 1005.10 1005.39 1005.91 1006.58 1007.29 1007.95 1008.48 1008.86 1009.11 1009.29 1009.46 1009.69 1010.01 1010.40 1010.82 1011.22 1011.57 1011.83 1012.01 1012.17 1012.33 1012.55 1012.84 1013.20 1013.60 1013.98 1014.31 1014.56 1014.74 1014.86 1014.98 1015.12 1015.31 1015.57 1015.86 1016.15 1016.41 1016.61 1016.75 1016.84 1016.92 1017.02
1004.47 1004.62 1005.01 1005.61 1006.35 1007.11 1007.81 1008.37 1008.77 1009.04 1009.24 1009.43 1009.68 1009.99 1010.37 1010.77 1011.15 1011.47 1011.71 1011.91 1012.09 1012.30 1012.57 1012.92 1013.33 1013.76 1014.15 1014.48 1014.72 1014.88 1014.98 1015.07 1015.19 1015.36 1015.59 1015.86 1016.12 1016.36 1016.54 1016.66 1016.75 1016.83 1016.94
1004.22 1004.43 1004.87 1005.52 1006.29 1007.06 1007.75 1008.30 1008.69 1008.96 1009.17 1009.38 1009.63 1009.95 1010.33 1010.72 1011.08 1011.39 1011.64 1011.85 1012.07 1012.32 1012.64 1013.03 1013.47 1013.91 1014.31 1014.63 1014.85 1014.98 1015.06 1015.13 1015.23 1015.38 1015.58 1015.82 1016.05 1016.25 1016.41 1016.51 1016.58 1016.66 1016.78
1004.39 1004.63 1005.09 1005.74 1006.48 1007.20 1007.83 1008.33 1008.68 1008.92 1009.12 1009.34 1009.61 1009.94 1010.32 1010.71 1011.07 1011.38 1011.63 1011.86 1012.09 1012.37 1012.71 1013.12 1013.57 1014.01 1014.40 1014.70 1014.90 1015.01 1015.06 1015.11 1015.19 1015.32 1015.50 1015.70 1015.90 1016.07 1016.20 1016.28 1016.34 1016.41 1016.52
1004.97 1005.22 1005.67 1006.27 1006.93 1007.56 1008.09 1008.48 1008.76 1008.95 1009.13 1009.35 1009.63 1009.98 1010.37 1010.76 1011.12 1011.43 1011.68 1011.90 1012.13 1012.41 1012.75 1013.15 1013.59 1014.01 1014.37 1014.65 1014.83 1014.92 1014.97 1015.01 1015.07 1015.18 1015.33 1015.51 1015.68 1015.82 1015.92 1015.97 1016.01 1016.08 1016.18
1005.85 1006.10 1006.51 1007.03 1007.58 1008.07 1008.46 1008.73 1008.91 1009.05 1009.20 1009.41 1009.71 1010.08 1010.48 1010.88 1011.23 1011.52 1011.74 1011.94 1012.15 1012.40 1012.71 1013.09 1013.49 1013.89 1014.23 1014.49 1014.66 1014.75 1014.79 1014.83 1014.89 1014.99 1015.12 1015.27 1015.42 1015.53 1015.60 1015.64 1015.67 1015.72 1015.82
1006.84 1007.08 1007.45 1007.88 1008.29 1008.63 1008.87 1009.02 1009.10 1009.18 1009.32 1009.54 1009.85 1010.23 1010.64 1011.03 1011.36 1011.61 1011.80 1011.95 1012.11 1012.31 1012.59 1012.92 1013.29 1013.67 1013.99 1014.25 1014.42 1014.52 1014.58 1014.63 1014.69 1014.78 1014.90 1015.03 1015.15 1015.24 1015.29 1015.32 1015.34 1015.38 1015.47
1007.75 1008.00 1008.32 1008.66 1008.94 1009.14 1009.24 1009.28 1009.29 1009.33 1009.46 1009.69 1010.02 1010.42 1010.83 1011.20 1011.49 1011.69 1011.82 1011.91 1012.01 1012.16 1012.39 1012.69 1013.03 1013.39 1013.72 1013.99 1014.18 1014.31 1014.39 1014.46 1014.53 1014.62 1014.72 1014.83 1014.93 1015.00 1015.04 1015.06 1015.08 1015.12 1015.20
1008.43 1008.69 1008.97 1009.23 1009.40 1009.49 1009.49 1009.46 1009.43 1009.47 1009.61 1009.87 1010.23 1010.63 1011.02 1011.36 1011.60 1011.74 1011.81 1011.84 1011.88 1011.99 1012.17 1012.45 1012.78 1013.14 1013.48 1013.77 1014.00 1014.17 1014.29 1014.37 1014.45 1014.54 1014.63 1014.72 1014.79 1014.85 1014.88 1014.90 1014.91 1014.95 1015.02
1008.81 1009.07 1009.32 1009.50 1009.61 1009.62 1009.58 1009.52 1009.51 1009.58 1009.77 1010.07 1010.44 1010.84 1011.21 1011.50 1011.69 1011.76 1011.77 1011.75 1011.75 1011.83 1012.00 1012.26 1012.59 1012.96 1013.33 1013.66 1013.92 1014.13 1014.28 1014.39 1014.47 1014.55 1014.62 1014.68 1014.73 1014.77 1014.79 1014.80 1014.82 1014.86 1014.91
1008.88 1009.12 1009.34 1009.48 1009.54 1009.54 1009.51 1009.49 1009.54 1009.68 1009.93 1010.27 1010.67 1011.06 1011.39 1011.62 1011.75 1011.77 1011.73 1011.67 1011.66 1011.73 1011.90 1012.17 1012.52 1012.91 1013.29 1013.65 1013.94 1014.17 1014.35 1014.47 1014.55 1014.61 1014.66 1014.69 1014.71 1014.72 1014.73 1014.74 1014.75 1014.78 1014.82
1008.71 1008.92 1009.09 1009.20 1009.26 1009.28 1009.31 1009.38 1009.53 1009.78 1010.11 1010.50 1010.90 1011.27 1011.55 1011.72 1011.79 1011.76 1011.70 1011.64 1011.64 1011.72 1011.91 1012.20 1012.56 1012.96 1013.35 1013.71 1014.02 1014.26 1014.44 1014.56 1014.63 1014.67 1014.69 1014.68 1014.67 1014.65 1014.64 1014.63 1014.64 1014.66 1014.68
1008.42 1008.56 1008.68 1008.77 1008.85 1008.93 1009.06 1009.26 1009.53 1009.89 1010.31 1010.74 1011.14 1011.46 1011.68 1011.79 1011.81 1011.76 1011.69 1011.65 1011.68 1011.80 1012.02 1012.33 1012.69 1013.07 1013.45 1013.80 1014.08 1014.31 1014.48 1014.59 1014.65 1014.66 1014.64 1014.60 1014.55 1014.50 1014.46 1014.43 1014.42 1014.42 1014.43
1008.12 1008.17 1008.23 1008.30 1008.40 1008.57 1008.81 1009.15 1009.57 1010.04 1010.53 1010.99 1011.37 1011.64 1011.80 1011.85 1011.82 1011.75 1011.70 1011.69 1011.77 1011.94 1012.19 1012.51 1012.86 1013.21 1013.55 1013.84 1014.09 1014.28 1014.42 1014.51 1014.55 1014.54 1014.49 1014.42 1014.33 1014.24 1014.16 1014.10 1014.07 1014.06 1014.05
1007.89 1007.84 1007.83 1007.88 1008.02 1008.26 1008.62 1009.10 1009.64 1010.22 1010.77 1011.24 1011.59 1011.80 1011.89 1011.88 1011.82 1011.75 1011.73 1011.78 1011.91 1012.13 1012.41 1012.72 1013.04 1013.34 1013.60 1013.83 1014.01 1014.16 1014.26 1014.33 1014.35 1014.33 1014.26 1014.16 1014.03 1013.90 1013.78 1013.69 1013.63 1013.59 1013.57
1007.79 1007.64 1007.56 1007.58 1007.74 1008.06 1008.53 1009.11 1009.77 1010.43 1011.02 1011.49 1011.80 1011.95 1011.98 1011.92 1011.84 1011.78 1011.80 1011.90 1012.09 1012.35 1012.64 1012.94 1013.21 1013.44 1013.63 1013.78 1013.89 1013.98 1014.06 1014.10 1014.12 1014.09 1014.01 1013.88 1013.72 1013.55 1013.39 1013.25 1013.15 1013.09 1013.05
1007.83 1007.59 1007.45 1007.44 1007.62 1007.99 1008.53 1009.21 1009.95 1010.66 1011.28 1011.73 1012.01 1012.11 1012.09 1012.00 1011.91 1011.87 1011.93 1012.08 1012.32 1012.61 1012.91 1013.18 1013.40 1013.56 1013.67 1013.74 1013.79 1013.84 1013.89 1013.94 1013.95 1013.93 1013.84 1013.70 1013.51 1013.30 1013.09 1012.90 1012.76 1012.66 1012.60
1008.02 1007.72 1007.52 1007.49 1007.67 1008.06 1008.66 1009.39 1010.18 1010.92 1011.55 1011.99 1012.24 1012.31 1012.26 1012.15 1012.07 1012.06 1012.16 1012.36 1012.64 1012.95 1013.24 1013.48 1013.65 1013.74 1013.78 1013.80 1013.81 1013.84 1013.89 1013.94 1013.97 1013.96 1013.88 1013.73 1013.51 1013.25 1012.98 1012.74 1012.54 1012.40 1012.31
1008.35 1008.01 1007.78 1007.72 1007.89 1008.29 1008.90 1009.66 1010.47 1011.23 1011.86 1012.29 1012.53 1012.58 1012.53 1012.43 1012.37 1012.39 1012.52 1012.76 1013.06 1013.38 1013.66 1013.87 1014.00 1014.04 1014.04 1014.02 1014.02 1014.05 1014.12 1014.20 1014.26 1014.27 1014.20 1014.03 1013.79 1013.48 1013.15 1012.84 1012.58 1012.38 1012.25
1008.82 1008.47 1008.22 1008.14 1008.29 1008.68 1009.28 1010.04 1010.84 1011.60 1012.23 1012.67 1012.90 1012.97 1012.93 1012.86 1012.82 1012.87 1013.04 1013.29 1013.60 1013.91 1014.17 1014.36 1014.46 1014.48 1014.46 1014.44 1014.46 1014.52 1014.62 1014.74 1014.83 1014.87 1014.80 1014.63 1014.36 1014.00 1013.61 1013.22 1012.88 1012.61 1012.42
1009.40 1009.07 1008.82 1008.73 1008.86 1009.22 1009.80 1010.53 1011.31 1012.06 1012.69 1013.13 1013.39 1013.49 1013.48 1013.44 1013.44 1013.52 1013.69 1013.94 1014.24 1014.53 1014.77 1014.93 1015.01 1015.03 1015.03 1015.03 1015.08 1015.19 1015.34 1015.50 1015.63 1015.69 1015.63 1015.45 1015.14 1014.74 1014.29 1013.83 1013.41 1013.05 1012.78
1010.08 1009.79 1009.56 1009.48 1009.59 1009.92 1010.46 1011.14 1011.90 1012.62 1013.24 1013.70 1013.98 1014.12 1014.16 1014.16 1014.19 1014.28 1014.45 1014.68 1014.94 1015.20 1015.40 1015.55 1015.62 1015.65 1015.67 1015.72 1015.82 1015.97 1016.17 1016.37 1016.53 1016.60 1016.55 1016.36 1016.03 1015.59 1015.08 1014.56 1014.06 1013.63 1013.27
Thickness
5798 5800 5800 5800 5799 5798 5796 5794 5792 5790 5788 5786 5784 5782 5780 5778 5776 5774 5772 5771 5769 5767 5766 5764 5762 5760 5759 5757 5756 5754 5753 5751 5749 5748 5747 5746 5745 5744 5743 5742 5741 5740 5739
5803 5800 5799 5799 5798 5796 5794 5792 5790 5787 5785 5784 5781 5779 5777 5775 5773 5771 5769 5768 5766 5765 5763 5761 5759 5757 5756 5755 5753 5752 5751 5749 5748 5746 5745 5744 5743 5742 5742 5740 5739 5738 5737
5803 5799 5797 5796 5795 5794 5792 5789 5787 5785 5783 5781 5779 5777 5775 5773 5771 5769 5767 5765 5764 5762 5760 5758 5757 5755 5754 5752 5751 5750 5749 5747 5746 5745 5743 5742 5741 5741 5740 5739 5737 5736 5735
5802 5798 5796 5794 5792 5791 5789 5787 5785 5782 5780 5778 5776 5774 5772 5770 5768 5766 5764 5762 5761 5759 5758 5756 5754 5753 5752 5750 5749 5748 5746 5745 5744 5743 5742 5740 5740 5739 5738 5737 5736 5735 5734
5799 5795 5793 5792 5790 5788 5786 5784 5782 5780 5778 5776 5774 5772 5770 5767 5765 5764 5762 5760 5758 5757 5755 5753 5752 5750 5749 5748 5747 5745 5744 5743 5742 5741 5740 5739 5738 5737 5737 5736 5735 5733 5732
5795 5793 5791 5789 5787 5786 5784 5781 5779 5777 5775 5773 5771 5769 5767 5765 5763 5761 5759 5758 5756 5754 5752 5750 5749 5748 5746 5745 5744 5743 5742 5741 5739 5738 5737 5737 5737 5735 5735 5734 5733 5732 5730
5791 5789 5788 5787 5785 5783 5781 5779 5777 5774 5772 5770 5768 5766 5764 5762 5760 5759 5757 5755 5754 5752 5750 5748 5747 5745 5744 5742 5741 5740 5740 5739 5738 5737 5736 5735 5735 5734 5733 5732 5731 5730 5729
5788 5786 5784 5783 5781 5780 5778 5776 5774 5772 5769 5767 5765 5763 5761 5759 5757 5755 5754 5752 5751 5749 5748 5746 5745 5743 5742 5740 5739 5738 5738 5737 5736 5735 5734 5733 5732 5732 5731 5730 5729 5728 5727
5784 5781 5780 5779 5777 5776 5774 5772 5770 5768 5766 5764 5762 5760 5758 5756 5754 5752 5751 5750 5748 5747 5746 5744 5742 5741 5740 5738 5737 5736 5735 5734 5733 5733 5732 5731 5730 5730 5729 5728 5727 5726 5725
5777 5776 5775 5774 5773 5772 5770 5768 5767 5765 5763 5761 5759 5757 5755 5753 5751 5750 5748 5747 5746 5744 5743 5742 5740 5739 5738 5736 5735 5734 5733 5732 5731 5730 5729 5728 5727 5727 5726 5726 5725 5724 5722
5771 5770 5770 5769 5767 5766 5766 5765 5763 5761 5759 5757 5755 5753 5752 5750 5748 5746 5745 5744 5742 5741 5740 5738 5737 5736 5735 5734 5733 5732 5731 5729 5728 5727 5726 5725 5724 5724 5723 5722 5721 5721 5720
5764 5764 5764 5764 5763 5762 5762 5760 5758 5757 5755 5753 5752 5750 5748 5746 5744 5743 5741 5740 5739 5738 5736 5735 5734 5733 5732 5731 5730 5729 5728 5726 5725 5724 5723 5722 5721 5721 5720 5719 5718 5717 5716
5761 5760 5760 5760 5759 5757 5757 5755 5754 5752 5751 5749 5748 5746 5744 5742 5740 5739 5738 5737 5735 5734 5733 5732 5731 5730 5729 5728 5727 5725 5724 5723 5722 5721 5720 5719 5718 5717 5716 5715 5715 5714 5713
5757 5755 5755 5755 5754 5753 5752 5751 5750 5748 5746 5745 5744 5743 5741 5738 5736 5735 5733 5733 5731 5730 5729 5728 5727 5726 5726 5724 5723 5722 5721 5720 5718 5717 5716 5716 5715 5714 5712 5712 5711 5710 5710
5752 5751 5749 5750 5749 5749 5749 5747 5746 5744 5741 5741 5739 5738 5737 5734 5732 5731 5729 5728 5727 5726 5725 5724 5723 5722 5721 5720 5720 5719 5717 5716 5715 5714 5713 5712 5711 5710 5709 5708 5707 5707 5707
5747 5746 5746 5745 5745 5745 5744 5743 5742 5740 5737 5736 5735 5733 5732 5730 5729 5727 5726 5725 5724 5723 5722 5721 5719 5718 5717 5716 5715 5714 5714 5712 5711 5710 5709 5708 5707 5706 5705 5705 5704 5703 5703
5745 5743 5743 5742 5742 5740 5739 5739 5738 5736 5734 5732 5730 5729 5728 5727 5726 5724 5722 5722 5721 5720 5719 5717 5715 5714 5713 5712 5710 5709 5709 5709 5707 5706 5705 5703 5703 5702 5701 5701 5700 5700 5699
5743 5740 5741 5741 5738 5736 5735 5734 5734 5733 5731 5728 5726 5725 5724 5723 5722 5720 5718 5718 5717 5716 5714 5712 5710 5708 5707 5706 5705 5704 5705 5704 5704 5703 5701 5700 5699 5698 5697 5697 5697 5696 5695
5740 5736 5734 5736 5734 5733 5732 5730 5729 5728 5726 5724 5722 5721 5720 5719 5718 5716 5714 5713 5713 5711 5709 5708 5705 5703 5701 5700 5700 5700 5699 5699 5698 5698 5696 5695 5695 5694 5693 5692 5692 5692 5691
5736 5733 5732 5731 5730 5729 5727 5725 5723 5722 5721 5719 5718 5717 5716 5715 5714 5712 5709 5708 5707 5705 5703 5702 5699 5698 5696 5695 5696 5695 5694 5694 5693 5692 5692 5691 5690 5689 5689 5688 5687 5686 5686
5729 5728 5726 5725 5724 5724 5722 5720 5717 5715 5715 5714 5714 5713 5712 5711 5710 5707 5705 5703 5701 5699 5697 5696 5694 5692 5690 5689 5686 5684 5685 5687 5687 5687 5686 5686 5685 5685 5684 5683 5682 5681 5681
5725 5724 5723 5722 5721 5722 5721 5719 5716 5713 5711 5711 5710 5709 5708 5707 5705 5703 5701 5698 5696 5694 5692 5691 5688 5685 5684 5683 5679 5674 5671 5674 5678 5681 5681 5680 5680 5680 5679 5679 5677 5676 5675
5721 5721 5723 5721 5720 5719 5718 5715 5712 5708 5706 5704 5703 5703 5703 5703 5701 5699 5697 5695 5693 5690 5687 5686 5685 5681 5677 5677 5676 5670 5664 5662 5665 5671 5673 5674 5674 5674 5674 5673 5672 5671 5670
5720 5720 5720 5719 5717 5716 5714 5711 5707 5703 5700 5700 5699 5698 5698 5698 5696 5695 5693 5691 5689 5686 5684 5683 5681 5678 5675 5671 5670 5668 5666 5663 5658 5658 5663 5666 5667 5667 5667 5667 5666 5664 5663
5718 5717 5717 5714 5713 5712 5710 5708 5704 5701 5698 5696 5695 5694 5693 5692 5692 5690 5689 5687 5684 5683 5681 5679 5677 5675 5672 5668 5665 5663 5661 5658 5656 5652 5651 5654 5657 5660 5661 5660 5659 5658 5657
5714 5713 5712 5710 5708 5708 5706 5704 5701 5698 5695 5692 5690 5688 5687 5686 5686 5685 5685 5683 5681 5679 5677 5676 5674 5671 5668 5665 5662 5659 5656 5653 5650 5647 5645 5646 5646 5650 5652 5653 5652 5651 5650